Regional Weather Roundup
Issued by NWS

Home | Current Version | Previous Version | Graphics & Text | Print | Product List | Glossary On
Versions: 1 2 3 4 5 6 7 8 9 10 11 12 13 14 15 16 17 18 19 20 21 22 23 24 25 26 27 28 29 30 31 32 33 34 35 36 37 38 39 40 41 42 43 44 45 46 47 48 49 50
005
ASUS43 KIND 230300
RWRIN

WEATHER ROUNDUP FOR INDIANA
NATIONAL WEATHER SERVICE INDIANAPOLIS IN
1100 PM EDT TUE AUG 22 2017

NOTE: "FAIR" INDICATES FEW OR NO CLOUDS BELOW 12,000 FEET WITH NO
SIGNIFICANT WEATHER AND/OR OBSTRUCTIONS TO VISIBILITY.

* - STATION DOES NOT REPORT WEATHER SUCH AS PRECIPITATION OR FOG.

+ - STATION NOT QUALITY CONTROLLED BY THE NATIONAL WEATHER SERVICE.
    USE DATA WITH CAUTION...ESPECIALLY DEWPOINT AND RELATIVE
    HUMIDITY OBSERVATIONS.

INZ001>003-010>013-019-020-230400-
NORTHWEST INDIANA

CITY           SKY/WX    TMP DP  RH WIND       PRES   REMARKS
GARY /AIRPORT/ PTCLDY    72  48  43 NW8       29.98R
MICHIGAN CITY+ CLOUDY    68  54  60 N6        29.98R
MONTICELLO +   MOCLDY    65  63  92 CALM      29.97S
RENSSELAER +   CLEAR     64  54  68 NW5       29.99R

$$

LMZ046-743>745-230400-
SOUTHERN LAKE MICHIGAN

STATION/POSITION TIME  TEMP    WIND        PRES    WAVE
                       AIR SEA DIR/SP/G            HT
                 (UTC) (F)     (DEG/KT/KT) (MB)    (FT)
BURNS HARBOR     0240   73     340/ 16/ 21 1015.2R
MICHIGAN CITY    0230   72     350/ 18/ 20   N/A
5NW MICH CITY    0250   73 74  330/ 16/ 19   N/A     5

$$

INZ004-005-014>016-021>024-230400-
NORTH CENTRAL INDIANA

CITY           SKY/WX    TMP DP  RH WIND       PRES   REMARKS
GOSHEN         CLEAR     61  55  81 S3        29.96R
PERU/GRISSOM   MOCLDY    68  62  79 CALM      29.97R
SOUTH BEND     MOCLDY    60  60 100 CALM      29.98R

$$

INZ006>009-017-018-025>027-230400-
NORTHEAST INDIANA

CITY           SKY/WX    TMP DP  RH WIND       PRES   REMARKS
FORT WAYNE     PTCLDY    65  57  75 CALM      29.97R

$$

INZ028-029-035-036-043>045-051>053-230400-
WEST CENTRAL INDIANA

CITY           SKY/WX    TMP DP  RH WIND       PRES   REMARKS
LAFAYETTE      CLEAR     63  62  97 NW5       29.98R
TERRE HAUTE    CLEAR     65  60  84 CALM      30.00R

$$

INZ030>032-037>040-046>048-054>057-064-065-230400-
CENTRAL INDIANA

CITY           SKY/WX    TMP DP  RH WIND       PRES   REMARKS
GREENWOOD *+   PTCLDY   N/A N/A N/A NW5       29.98R
INDIANAPOLIS   CLEAR     68  61  78 W9        29.97R
-EAGLE CREEK   CLEAR     69  61  75 NW9       29.97R
KOKOMO +       MOCLDY    68  61  78 N6        29.99R
MT COMFORT *+  CLEAR     66  61  82 NW5       29.98R
SHELBYVILLE    CLEAR     67  61  81 NW7       29.96R

$$

INZ033-034-041-042-049-050-058-059-230400-
EAST CENTRAL INDIANA

CITY           SKY/WX    TMP DP  RH WIND       PRES   REMARKS
MUNCIE         MOCLDY    69  63  81 N5        29.97R
RICHMOND +     CLEAR     66  63  88 NW6       29.97S

$$

INZ060-061-067>069-081>083-085>088-230400-
SOUTHWEST INDIANA

CITY           SKY/WX    TMP DP  RH WIND       PRES   REMARKS
EVANSVILLE     PTCLDY    73  67  81 W6        29.99R
HUNTINGBURG +  CLOUDY    71  67  87 NW6       29.98R

$$

INZ062-063-066-070>080-084-089>092-230400-
SOUTH CENTRAL AND SOUTHEAST INDIANA

CITY           SKY/WX    TMP DP  RH WIND       PRES   REMARKS
BLOOMINGTON    MOCLDY    71  62  73 NW3       29.99R
MADISON *+     CLOUDY    72  70  94 CALM      29.99R VSB<1/4
SEYMOUR +      CLOUDY    73  66  78 NW10      29.96R

$$





USA.gov is the U.S. government's official web portal to all federal, state and local government web resources and services.